Time,TemperatureF,DewpointF,PressureIn,WindDirection,WindDirectionDegrees,WindSpeedMPH,WindSpeedGustMPH,Humidity,HourlyPrecipIn,Conditions,Clouds,dailyrainin,SoftwareType,DateUTC
2013-03-15 00:00:00,60.0,0.0,30.04,North,361,6.0,6.0,34,-99.99,,,-99.99,,2013-03-15 07:00:00,
2013-03-15 00:08:00,59.0,0.0,30.04,North,361,6.0,6.0,34,-99.99,,,-99.99,,2013-03-15 07:08:00,
2013-03-15 00:16:00,61.0,0.0,30.04,North,7,5.0,5.0,32,-99.99,,,-99.99,,2013-03-15 07:16:00,
2013-03-15 00:24:00,61.0,0.0,30.03,NE,39,5.0,5.0,33,-99.99,,,-99.99,,2013-03-15 07:24:00,
2013-03-15 00:32:00,61.0,0.0,30.03,ENE,57,3.0,3.0,32,-99.99,,,-99.99,,2013-03-15 07:32:00,
2013-03-15 00:40:00,60.0,0.0,30.03,SSE,149,3.0,3.0,34,-99.99,,,-99.99,,2013-03-15 07:40:00,
2013-03-15 00:48:00,61.0,0.0,30.03,SSE,159,3.0,3.0,31,-99.99,,,-99.99,,2013-03-15 07:48:00,
2013-03-15 00:56:00,60.0,0.0,30.03,South,169,3.0,3.0,33,-99.99,,,-99.99,,2013-03-15 07:56:00,
2013-03-15 01:04:00,56.0,0.0,30.03,WNW,298,5.0,5.0,37,-99.99,,,-99.99,,2013-03-15 08:04:00,
2013-03-15 01:12:00,56.0,0.0,30.03,WNW,294,6.0,6.0,40,-99.99,,,-99.99,,2013-03-15 08:12:00,
2013-03-15 01:20:00,56.0,0.0,30.03,WNW,284,3.0,3.0,40,-99.99,,,-99.99,,2013-03-15 08:20:00,
2013-03-15 01:28:00,56.0,0.0,30.03,WNW,301,5.0,5.0,38,-99.99,,,-99.99,,2013-03-15 08:28:00,
2013-03-15 01:36:00,55.0,0.0,30.02,North,358,3.0,3.0,36,-99.99,,,-99.99,,2013-03-15 08:36:00,
2013-03-15 01:44:00,55.0,0.0,30.02,NNW,327,2.0,2.0,37,-99.99,,,-99.99,,2013-03-15 08:44:00,
2013-03-15 01:52:00,55.0,0.0,30.02,North,359,1.0,1.0,39,-99.99,,,-99.99,,2013-03-15 08:52:00,
2013-03-15 02:00:00,55.0,0.0,30.02,NW,319,1.0,1.0,39,-99.99,,,-99.99,,2013-03-15 09:00:00,
2013-03-15 02:08:00,55.0,0.0,30.02,NW,309,2.0,2.0,37,-99.99,,,-99.99,,2013-03-15 09:08:00,
2013-03-15 02:16:00,53.0,0.0,30.02,NW,318,3.0,5.0,40,-99.99,,,-99.99,,2013-03-15 09:16:00,
2013-03-15 02:24:00,52.0,0.0,30.01,NW,311,5.0,6.0,40,-99.99,,,-99.99,,2013-03-15 09:24:00,
2013-03-15 02:32:00,52.0,0.0,30.01,North,361,2.0,2.0,40,-99.99,,,-99.99,,2013-03-15 09:32:00,
2013-03-15 02:40:00,52.0,0.0,30.01,West,268,1.0,1.0,39,-99.99,,,-99.99,,2013-03-15 09:40:00,
2013-03-15 02:48:00,52.0,0.0,30.01,North,0,0.0,1.0,41,-99.99,,,-99.99,,2013-03-15 09:48:00,
2013-03-15 02:56:00,52.0,0.0,30.01,SSW,197,2.0,2.0,41,-99.99,,,-99.99,,2013-03-15 09:56:00,
2013-03-15 03:04:00,53.0,0.0,30.01,West,276,2.0,2.0,40,-99.99,,,-99.99,,2013-03-15 10:04:00,
2013-03-15 03:12:00,52.0,0.0,30.01,West,281,2.0,3.0,41,-99.99,,,-99.99,,2013-03-15 10:12:00,
2013-03-15 03:20:00,54.0,0.0,30.00,West,279,3.0,3.0,38,-99.99,,,-99.99,,2013-03-15 10:20:00,
2013-03-15 03:28:00,53.0,0.0,30.00,WSW,244,3.0,3.0,39,-99.99,,,-99.99,,2013-03-15 10:28:00,
2013-03-15 03:36:00,53.0,0.0,30.00,WSW,248,3.0,3.0,40,-99.99,,,-99.99,,2013-03-15 10:36:00,
2013-03-15 03:44:00,54.0,0.0,30.00,WSW,241,3.0,3.0,38,-99.99,,,-99.99,,2013-03-15 10:44:00,
2013-03-15 03:52:00,55.0,0.0,29.99,West,262,2.0,2.0,37,-99.99,,,-99.99,,2013-03-15 10:52:00,
2013-03-15 04:00:00,55.0,0.0,30.00,West,272,3.0,5.0,38,-99.99,,,-99.99,,2013-03-15 11:00:00,
2013-03-15 04:08:00,52.0,0.0,29.99,North,0,5.0,5.0,41,-99.99,,,-99.99,,2013-03-15 11:08:00,
2013-03-15 04:16:00,52.0,0.0,29.99,NE,52,0.0,0.0,43,-99.99,,,-99.99,,2013-03-15 11:16:00,
2013-03-15 04:24:00,52.0,0.0,29.99,West,267,1.0,1.0,42,-99.99,,,-99.99,,2013-03-15 11:24:00,
2013-03-15 04:32:00,52.0,0.0,29.99,NW,306,3.0,5.0,41,-99.99,,,-99.99,,2013-03-15 11:32:00,
2013-03-15 04:40:00,51.0,0.0,29.99,NNW,336,1.0,1.0,46,-99.99,,,-99.99,,2013-03-15 11:40:00,
2013-03-15 04:48:00,51.0,0.0,29.99,SSE,149,2.0,2.0,42,-99.99,,,-99.99,,2013-03-15 11:48:00,
2013-03-15 04:56:00,52.0,0.0,29.99,South,183,1.0,1.0,45,-99.99,,,-99.99,,2013-03-15 11:56:00,
2013-03-15 05:04:00,51.0,0.0,29.99,WSW,244,2.0,3.0,45,-99.99,,,-99.99,,2013-03-15 12:04:00,
2013-03-15 05:12:00,52.0,0.0,29.98,South,179,2.0,2.0,42,-99.99,,,-99.99,,2013-03-15 12:12:00,
2013-03-15 05:20:00,51.0,0.0,29.99,WNW,288,3.0,3.0,43,-99.99,,,-99.99,,2013-03-15 12:20:00,
2013-03-15 05:28:00,52.0,0.0,29.99,WNW,300,2.0,2.0,42,-99.99,,,-99.99,,2013-03-15 12:28:00,
2013-03-15 05:36:00,50.0,0.0,29.99,NW,307,1.0,1.0,45,-99.99,,,-99.99,,2013-03-15 12:36:00,
2013-03-15 05:44:00,51.0,0.0,29.99,NW,307,1.0,1.0,44,-99.99,,,-99.99,,2013-03-15 12:44:00,
2013-03-15 05:52:00,51.0,0.0,29.99,SE,131,2.0,2.0,44,-99.99,,,-99.99,,2013-03-15 12:52:00,
2013-03-15 06:00:00,52.0,0.0,29.99,SSE,151,2.0,2.0,43,-99.99,,,-99.99,,2013-03-15 13:00:00,
2013-03-15 06:08:00,52.0,0.0,29.99,SSW,193,5.0,5.0,42,-99.99,,,-99.99,,2013-03-15 13:08:00,
2013-03-15 06:16:00,51.0,0.0,29.99,WNW,299,3.0,3.0,44,-99.99,,,-99.99,,2013-03-15 13:16:00,
2013-03-15 06:24:00,49.0,0.0,29.99,WSW,253,1.0,1.0,45,-99.99,,,-99.99,,2013-03-15 13:24:00,
2013-03-15 06:32:00,52.0,0.0,29.99,SW,222,3.0,3.0,41,-99.99,,,-99.99,,2013-03-15 13:32:00,
2013-03-15 06:40:00,49.0,0.0,29.99,North,8,2.0,3.0,44,-99.99,,,-99.99,,2013-03-15 13:40:00,
2013-03-15 06:48:00,50.0,0.0,29.99,North,5,0.0,0.0,47,-99.99,,,-99.99,,2013-03-15 13:48:00,
2013-03-15 06:56:00,50.0,0.0,30.00,WSW,256,5.0,5.0,43,-99.99,,,-99.99,,2013-03-15 13:56:00,
2013-03-15 07:04:00,51.0,0.0,29.99,SW,233,2.0,3.0,43,-99.99,,,-99.99,,2013-03-15 14:04:00,
2013-03-15 07:12:00,52.0,0.0,30.00,West,259,3.0,3.0,42,-99.99,,,-99.99,,2013-03-15 14:12:00,
2013-03-15 07:20:00,49.0,0.0,30.00,North,2,3.0,5.0,43,-99.99,,,-99.99,,2013-03-15 14:20:00,
2013-03-15 07:28:00,48.0,0.0,30.00,ENE,61,3.0,3.0,46,-99.99,,,-99.99,,2013-03-15 14:28:00,
2013-03-15 07:36:00,50.0,0.0,30.00,ENE,78,2.0,2.0,40,-99.99,,,-99.99,,2013-03-15 14:36:00,
2013-03-15 07:44:00,51.0,0.0,30.01,NE,40,1.0,1.0,41,-99.99,,,-99.99,,2013-03-15 14:44:00,
2013-03-15 07:52:00,52.0,0.0,30.00,SE,140,2.0,2.0,41,-99.99,,,-99.99,,2013-03-15 14:52:00,
2013-03-15 08:00:00,51.0,0.0,30.01,WNW,286,2.0,2.0,42,-99.99,,,-99.99,,2013-03-15 15:00:00,
2013-03-15 08:08:00,52.0,0.0,30.01,South,170,2.0,2.0,42,-99.99,,,-99.99,,2013-03-15 15:08:00,
2013-03-15 08:16:00,54.0,0.0,30.01,NW,326,7.0,7.0,39,-99.99,,,-99.99,,2013-03-15 15:16:00,
2013-03-15 08:24:00,55.0,0.0,30.01,West,273,2.0,2.0,36,-99.99,,,-99.99,,2013-03-15 15:24:00,
2013-03-15 08:32:00,56.0,0.0,30.01,SW,220,2.0,2.0,36,-99.99,,,-99.99,,2013-03-15 15:32:00,
2013-03-15 08:40:00,60.0,0.0,30.01,North,361,0.0,0.0,35,-99.99,,,-99.99,,2013-03-15 15:40:00,
2013-03-15 08:48:00,62.0,0.0,30.02,NNW,330,2.0,2.0,29,-99.99,,,-99.99,,2013-03-15 15:48:00,
2013-03-15 08:56:00,63.0,0.0,30.02,WSW,243,2.0,2.0,31,-99.99,,,-99.99,,2013-03-15 15:56:00,
2013-03-15 09:04:00,64.0,0.0,30.02,WSW,250,1.0,1.0,30,-99.99,,,-99.99,,2013-03-15 16:04:00,
2013-03-15 09:12:00,65.0,0.0,30.02,South,174,0.0,1.0,30,-99.99,,,-99.99,,2013-03-15 16:12:00,
2013-03-15 09:20:00,66.0,0.0,30.02,WSW,251,1.0,1.0,28,-99.99,,,-99.99,,2013-03-15 16:20:00,
2013-03-15 09:28:00,69.0,0.0,30.02,WSW,240,1.0,2.0,29,-99.99,,,-99.99,,2013-03-15 16:28:00,
2013-03-15 09:36:00,70.0,0.0,30.02,SW,214,1.0,2.0,28,-99.99,,,-99.99,,2013-03-15 16:36:00,
2013-03-15 09:44:00,71.0,0.0,30.02,NW,323,1.0,1.0,27,-99.99,,,-99.99,,2013-03-15 16:44:00,
2013-03-15 09:52:00,73.0,0.0,30.02,NE,49,0.0,1.0,23,-99.99,,,-99.99,,2013-03-15 16:52:00,
2013-03-15 09:57:00,73.0,0.0,30.02,SE,124,0.0,0.0,23,-99.99,,,-99.99,,2013-03-15 16:57:00,
2013-03-15 10:04:00,74.0,0.0,30.02,NE,54,1.0,1.0,24,-99.99,,,-99.99,,2013-03-15 17:04:00,
2013-03-15 10:12:00,73.0,0.0,30.02,ESE,109,2.0,3.0,25,-99.99,,,-99.99,,2013-03-15 17:12:00,
2013-03-15 10:20:00,75.0,0.0,30.02,South,171,5.0,5.0,24,-99.99,,,-99.99,,2013-03-15 17:20:00,
2013-03-15 10:28:00,73.0,0.0,30.02,SE,142,1.0,1.0,25,-99.99,,,-99.99,,2013-03-15 17:28:00,
2013-03-15 10:36:00,74.0,0.0,30.02,SSW,206,0.0,0.0,24,-99.99,,,-99.99,,2013-03-15 17:36:00,
2013-03-15 10:44:00,76.0,0.0,30.02,WNW,285,1.0,1.0,21,-99.99,,,-99.99,,2013-03-15 17:44:00,
2013-03-15 10:52:00,78.0,0.0,30.01,NE,42,0.0,0.0,20,-99.99,,,-99.99,,2013-03-15 17:52:00,
2013-03-15 11:00:00,77.0,0.0,30.01,SE,129,0.0,0.0,22,-99.99,,,-99.99,,2013-03-15 18:00:00,
2013-03-15 11:08:00,79.0,0.0,30.01,SW,217,2.0,2.0,19,-99.99,,,-99.99,,2013-03-15 18:08:00,
2013-03-15 11:16:00,80.0,0.0,30.00,South,189,1.0,1.0,23,-99.99,,,-99.99,,2013-03-15 18:16:00,
2013-03-15 11:24:00,80.0,0.0,30.00,SE,145,2.0,2.0,23,-99.99,,,-99.99,,2013-03-15 18:24:00,
2013-03-15 11:32:00,81.0,0.0,30.00,SW,224,0.0,1.0,20,-99.99,,,-99.99,,2013-03-15 18:32:00,
2013-03-15 11:40:00,81.0,0.0,30.00,SSE,148,5.0,6.0,17,-99.99,,,-99.99,,2013-03-15 18:40:00,
2013-03-15 11:48:00,81.0,0.0,29.99,South,189,2.0,3.0,19,-99.99,,,-99.99,,2013-03-15 18:48:00,
2013-03-15 11:56:00,81.0,0.0,29.99,SSE,151,3.0,3.0,17,-99.99,,,-99.99,,2013-03-15 18:56:00,
2013-03-15 12:04:00,82.0,0.0,29.98,SW,234,1.0,2.0,16,-99.99,,,-99.99,,2013-03-15 19:04:00,
2013-03-15 12:12:00,83.0,0.0,29.98,SSE,163,5.0,6.0,17,-99.99,,,-99.99,,2013-03-15 19:12:00,
2013-03-15 12:20:00,83.0,0.0,29.97,SSE,152,6.0,6.0,18,-99.99,,,-99.99,,2013-03-15 19:20:00,
2013-03-15 12:28:00,83.0,0.0,29.97,South,170,2.0,3.0,17,-99.99,,,-99.99,,2013-03-15 19:28:00,
2013-03-15 12:36:00,84.0,0.0,29.96,WSW,237,6.0,6.0,19,-99.99,,,-99.99,,2013-03-15 19:36:00,
2013-03-15 12:44:00,84.0,0.0,29.96,SW,220,7.0,7.0,13,-99.99,,,-99.99,,2013-03-15 19:44:00,
2013-03-15 12:52:00,85.0,0.0,29.95,WNW,284,0.0,1.0,13,-99.99,,,-99.99,,2013-03-15 19:52:00,
2013-03-15 13:00:00,86.0,0.0,29.95,SE,146,2.0,5.0,13,-99.99,,,-99.99,,2013-03-15 20:00:00,
2013-03-15 13:08:00,86.0,0.0,29.95,SE,124,5.0,7.0,14,-99.99,,,-99.99,,2013-03-15 20:08:00,
2013-03-15 13:16:00,84.0,0.0,29.94,SE,140,7.0,8.0,15,-99.99,,,-99.99,,2013-03-15 20:16:00,
2013-03-15 13:24:00,84.0,0.0,29.94,SE,142,9.0,9.0,15,-99.99,,,-99.99,,2013-03-15 20:24:00,
2013-03-15 13:32:00,85.0,0.0,29.93,ESE,104,3.0,5.0,15,-99.99,,,-99.99,,2013-03-15 20:32:00,
2013-03-15 13:40:00,86.0,0.0,29.92,SSW,193,7.0,7.0,16,-99.99,,,-99.99,,2013-03-15 20:40:00,
2013-03-15 13:48:00,86.0,0.0,29.92,ESE,123,2.0,3.0,14,-99.99,,,-99.99,,2013-03-15 20:48:00,
2013-03-15 13:56:00,86.0,0.0,29.91,West,262,8.0,8.0,14,-99.99,,,-99.99,,2013-03-15 20:56:00,
2013-03-15 14:04:00,87.0,0.0,29.90,SSE,150,5.0,5.0,17,-99.99,,,-99.99,,2013-03-15 21:04:00,
2013-03-15 14:12:00,86.0,0.0,29.90,SSW,196,8.0,8.0,16,-99.99,,,-99.99,,2013-03-15 21:12:00,
2013-03-15 14:20:00,88.0,0.0,29.89,WSW,246,7.0,7.0,17,-99.99,,,-99.99,,2013-03-15 21:20:00,
2013-03-15 14:28:00,87.0,0.0,29.88,SSW,212,5.0,6.0,17,-99.99,,,-99.99,,2013-03-15 21:28:00,
2013-03-15 14:36:00,89.0,0.0,29.88,South,179,8.0,12.0,15,-99.99,,,-99.99,,2013-03-15 21:36:00,
2013-03-15 14:44:00,88.0,0.0,29.88,SE,124,5.0,7.0,14,-99.99,,,-99.99,,2013-03-15 21:44:00,
2013-03-15 14:52:00,88.0,0.0,29.87,South,169,12.0,12.0,15,-99.99,,,-99.99,,2013-03-15 21:52:00,
2013-03-15 15:00:00,89.0,0.0,29.87,SE,140,5.0,5.0,15,-99.99,,,-99.99,,2013-03-15 22:00:00,
2013-03-15 15:08:00,90.0,0.0,29.87,SSW,207,9.0,9.0,10,-99.99,,,-99.99,,2013-03-15 22:08:00,
2013-03-15 15:16:00,88.0,0.0,29.86,SW,230,7.0,9.0,11,-99.99,,,-99.99,,2013-03-15 22:16:00,
2013-03-15 15:24:00,90.0,0.0,29.85,SW,227,12.0,12.0,15,-99.99,,,-99.99,,2013-03-15 22:24:00,
2013-03-15 15:32:00,90.0,0.0,29.86,SW,217,13.0,14.0,11,-99.99,,,-99.99,,2013-03-15 22:32:00,
2013-03-15 15:40:00,90.0,0.0,29.85,SW,216,16.0,16.0,12,-99.99,,,-99.99,,2013-03-15 22:40:00,
2013-03-15 15:48:00,90.0,0.0,29.84,SW,230,14.0,14.0,12,-99.99,,,-99.99,,2013-03-15 22:48:00,
2013-03-15 15:56:00,89.0,0.0,29.84,SW,218,12.0,12.0,11,-99.99,,,-99.99,,2013-03-15 22:56:00,
2013-03-15 16:04:00,90.0,0.0,29.84,SSW,212,15.0,15.0,13,-99.99,,,-99.99,,2013-03-15 23:04:00,
2013-03-15 16:12:00,89.0,0.0,29.83,SW,225,16.0,16.0,12,-99.99,,,-99.99,,2013-03-15 23:12:00,
2013-03-15 16:20:00,90.0,0.0,29.83,SW,231,9.0,12.0,12,-99.99,,,-99.99,,2013-03-15 23:20:00,
2013-03-15 16:28:00,89.0,0.0,29.83,West,277,13.0,14.0,12,-99.99,,,-99.99,,2013-03-15 23:28:00,
2013-03-15 16:36:00,89.0,0.0,29.83,West,266,9.0,9.0,14,-99.99,,,-99.99,,2013-03-15 23:36:00,
2013-03-15 16:44:00,88.0,0.0,29.83,WNW,291,10.0,13.0,16,-99.99,,,-99.99,,2013-03-15 23:44:00,
2013-03-15 16:52:00,87.0,0.0,29.82,West,262,10.0,10.0,15,-99.99,,,-99.99,,2013-03-15 23:52:00,
2013-03-15 17:00:00,87.0,0.0,29.82,SW,234,8.0,10.0,17,-99.99,,,-99.99,,2013-03-16 00:00:00,
2013-03-15 17:08:00,86.0,0.0,29.82,SW,226,13.0,13.0,17,-99.99,,,-99.99,,2013-03-16 00:08:00,
2013-03-15 17:20:00,86.0,0.0,29.81,West,277,7.0,7.0,18,-99.99,,,-99.99,,2013-03-16 00:20:00,
2013-03-15 17:28:00,85.0,0.0,29.81,WNW,282,18.0,18.0,20,-99.99,,,-99.99,,2013-03-16 00:28:00,
2013-03-15 17:36:00,85.0,0.0,29.81,WNW,287,14.0,14.0,21,-99.99,,,-99.99,,2013-03-16 00:36:00,
2013-03-15 17:44:00,83.0,0.0,29.81,West,276,16.0,17.0,23,-99.99,,,-99.99,,2013-03-16 00:44:00,
2013-03-15 17:52:00,82.0,0.0,29.81,West,278,15.0,20.0,25,-99.99,,,-99.99,,2013-03-16 00:52:00,
2013-03-15 18:00:00,82.0,0.0,29.81,WNW,289,23.0,23.0,26,-99.99,,,-99.99,,2013-03-16 01:00:00,
2013-03-15 18:08:00,82.0,0.0,29.80,WNW,283,25.0,25.0,26,-99.99,,,-99.99,,2013-03-16 01:08:00,
2013-03-15 18:16:00,0.0,0.0,-0.01,North,0,0.0,0.0,0,-99.99,,,-99.99,,2013-03-16 01:16:00,
2013-03-15 18:24:00,81.0,0.0,29.81,West,276,24.0,24.0,26,-99.99,,,-99.99,,2013-03-16 01:24:00,
2013-03-15 18:32:00,81.0,0.0,29.82,WNW,284,18.0,20.0,27,-99.99,,,-99.99,,2013-03-16 01:32:00,
2013-03-15 18:40:00,80.0,0.0,29.82,West,265,13.0,14.0,29,-99.99,,,-99.99,,2013-03-16 01:40:00,
2013-03-15 18:48:00,80.0,0.0,29.82,WSW,240,14.0,14.0,27,-99.99,,,-99.99,,2013-03-16 01:48:00,
2013-03-15 18:56:00,79.0,0.0,29.82,WSW,247,13.0,14.0,28,-99.99,,,-99.99,,2013-03-16 01:56:00,
2013-03-15 19:04:00,79.0,0.0,29.82,WSW,237,12.0,12.0,26,-99.99,,,-99.99,,2013-03-16 02:04:00,
2013-03-15 19:12:00,78.0,0.0,29.83,WSW,239,15.0,15.0,26,-99.99,,,-99.99,,2013-03-16 02:12:00,
2013-03-15 19:20:00,78.0,0.0,29.83,WSW,251,14.0,15.0,30,-99.99,,,-99.99,,2013-03-16 02:20:00,
2013-03-15 19:28:00,77.0,0.0,29.82,WSW,248,12.0,12.0,28,-99.99,,,-99.99,,2013-03-16 02:28:00,
2013-03-15 19:36:00,77.0,0.0,29.82,NW,306,13.0,14.0,29,-99.99,,,-99.99,,2013-03-16 02:36:00,
2013-03-15 19:44:00,76.0,0.0,29.82,WNW,300,13.0,13.0,26,-99.99,,,-99.99,,2013-03-16 02:44:00,
2013-03-15 19:52:00,76.0,0.0,29.82,West,280,14.0,14.0,25,-99.99,,,-99.99,,2013-03-16 02:52:00,
2013-03-15 20:00:00,76.0,0.0,29.83,NW,305,2.0,3.0,28,-99.99,,,-99.99,,2013-03-16 03:00:00,
2013-03-15 20:08:00,76.0,0.0,29.83,ESE,116,7.0,7.0,28,-99.99,,,-99.99,,2013-03-16 03:08:00,
2013-03-15 20:16:00,76.0,0.0,29.84,ESE,119,8.0,9.0,29,-99.99,,,-99.99,,2013-03-16 03:16:00,
2013-03-15 20:24:00,77.0,0.0,29.84,NW,317,6.0,6.0,27,-99.99,,,-99.99,,2013-03-16 03:24:00,
2013-03-15 20:32:00,76.0,0.0,29.83,South,188,1.0,9.0,26,-99.99,,,-99.99,,2013-03-16 03:32:00,
2013-03-15 20:40:00,76.0,0.0,29.83,SSW,206,6.0,6.0,24,-99.99,,,-99.99,,2013-03-16 03:40:00,
2013-03-15 20:48:00,76.0,0.0,29.83,WSW,247,8.0,8.0,26,-99.99,,,-99.99,,2013-03-16 03:48:00,
2013-03-15 20:56:00,74.0,0.0,29.83,SW,227,10.0,10.0,27,-99.99,,,-99.99,,2013-03-16 03:56:00,
2013-03-15 21:00:00,74.0,0.0,29.82,West,264,12.0,12.0,25,-99.99,,,-99.99,,2013-03-16 04:00:00,
2013-03-15 21:08:00,74.0,0.0,29.82,WSW,245,10.0,10.0,25,-99.99,,,-99.99,,2013-03-16 04:08:00,
2013-03-15 21:12:00,74.0,0.0,29.82,WNW,289,7.0,9.0,24,-99.99,,,-99.99,,2013-03-16 04:12:00,
2013-03-15 21:16:00,74.0,0.0,29.83,West,264,8.0,8.0,23,-99.99,,,-99.99,,2013-03-16 04:16:00,
2013-03-15 21:24:00,75.0,0.0,29.83,West,270,5.0,8.0,22,-99.99,,,-99.99,,2013-03-16 04:24:00,
2013-03-15 21:32:00,75.0,0.0,29.83,WNW,299,14.0,14.0,24,-99.99,,,-99.99,,2013-03-16 04:32:00,
2013-03-15 21:40:00,74.0,0.0,29.83,WSW,242,5.0,5.0,25,-99.99,,,-99.99,,2013-03-16 04:40:00,
2013-03-15 21:48:00,73.0,0.0,29.83,SSW,210,5.0,5.0,24,-99.99,,,-99.99,,2013-03-16 04:48:00,
2013-03-15 21:56:00,72.0,0.0,29.83,SSW,205,6.0,6.0,24,-99.99,,,-99.99,,2013-03-16 04:56:00,
2013-03-15 22:04:00,73.0,0.0,29.83,SW,218,7.0,7.0,24,-99.99,,,-99.99,,2013-03-16 05:04:00,
2013-03-15 22:12:00,73.0,0.0,29.83,SW,224,6.0,6.0,23,-99.99,,,-99.99,,2013-03-16 05:12:00,
2013-03-15 22:20:00,72.0,0.0,29.84,SW,216,6.0,6.0,25,-99.99,,,-99.99,,2013-03-16 05:20:00,
2013-03-15 22:28:00,72.0,0.0,29.84,WSW,240,5.0,5.0,23,-99.99,,,-99.99,,2013-03-16 05:28:00,
2013-03-15 22:36:00,69.0,0.0,29.84,NW,322,7.0,8.0,30,-99.99,,,-99.99,,2013-03-16 05:36:00,
2013-03-15 22:44:00,68.0,0.0,29.84,North,0,2.0,3.0,31,-99.99,,,-99.99,,2013-03-16 05:44:00,
2013-03-15 22:52:00,67.0,0.0,29.84,North,349,3.0,5.0,31,-99.99,,,-99.99,,2013-03-16 05:52:00,
2013-03-15 23:00:00,67.0,0.0,29.84,West,277,6.0,6.0,30,-99.99,,,-99.99,,2013-03-16 06:00:00,
2013-03-15 23:08:00,66.0,0.0,29.84,North,358,7.0,9.0,35,-99.99,,,-99.99,,2013-03-16 06:08:00,
2013-03-15 23:16:00,66.0,0.0,29.84,NNE,26,3.0,5.0,33,-99.99,,,-99.99,,2013-03-16 06:16:00,
2013-03-15 23:24:00,65.0,0.0,29.84,NE,45,5.0,6.0,35,-99.99,,,-99.99,,2013-03-16 06:24:00,
2013-03-15 23:32:00,65.0,0.0,29.84,East,93,2.0,3.0,33,-99.99,,,-99.99,,2013-03-16 06:32:00,
2013-03-15 23:40:00,65.0,0.0,29.85,NNW,340,1.0,1.0,33,-99.99,,,-99.99,,2013-03-16 06:40:00,
2013-03-15 23:48:00,63.0,0.0,29.85,NW,324,7.0,7.0,35,-99.99,,,-99.99,,2013-03-16 06:48:00,
2013-03-15 23:56:00,63.0,0.0,29.85,NE,34,3.0,5.0,35,-99.99,,,-99.99,,2013-03-16 06:56:00,